User: anonymous   Login
Location: Unspecified
(0.0000°N, 0.0000°E)
Time: 06:58:08
(UTC+00:00)
Language:

Sedsat-1 - Orbit

View from above orbital plane
View from above orbital plane
View from above satellite
View from above satellite

Ground track
Ground track

The orbit data is extracted from the following two-line orbital elements,

1 25509U 98061B   17202.46250365 +.00000160 +00000-0 +18267-4 0  9993
2 25509 031.4324 231.0139 0347043 304.9034 051.9438 14.30284962979580
Epoch (UTC): 21 July 2017 11:06:00
Eccentricity: 0.0347043
inclination: 31.4324°
perigee height: 542 km
apogee height: 1039 km
right ascension of ascending node: 231.0139°
argument of perigee: 304.9034°
revolutions per day: 14.30284962
mean anomaly at epoch: 51.9438°
orbit number at epoch: 97958

The dashed part of the orbit path shows where the satellite is in the earth's shadow,  

DLR